DAL290 KLAX-LFPG

Flight info

Callsign DAL290
Flight time N/A
Altitude 37000
Route OSHNN1 BEALE DCT EEVUN DCT BCE DCT KU54Q DCT CHE DCT CYS J148 ONL DCT KP81G DCT KP87K DCT SSM DCT ULBUX DCT ANCER N553B UMESI/M084F370 DCT 51N050W 52N040W 52N030W 52N020W DCT ADARA/N0482F370 DCT LEKVA/M085F370 DCT LULOX/N0487F370 DCT NAKID DCT ANNET UM25 LUKIP
Aircraft A359/H-SDE2E3GHIJ3J4J5LM1ORWXY/LB1D1

Departure

Time N/A
Airport Los Angeles International Airport (KLAX)

Arrival

Time 2026-05-05 20:30
Airport Charles de Gaulle International Airport (LFPG)
Time Latitude Longitude Altitude Speed Heading
2026-05-05 19:02 51.44881 -13.67995 37156 ft 508 kts 104°
2026-05-05 19:02 51.43969 -13.62456 37156 ft 508 kts 104°
2026-05-05 19:03 51.42173 -13.51508 37159 ft 508 kts 104°
2026-05-05 19:03 51.40377 -13.40583 37154 ft 507 kts 104°
2026-05-05 19:04 51.38572 -13.29660 37151 ft 507 kts 105°
2026-05-05 19:04 51.36770 -13.18833 37151 ft 507 kts 105°
2026-05-05 19:05 51.34944 -13.07931 37148 ft 507 kts 105°
2026-05-05 19:05 51.33107 -12.97036 37151 ft 507 kts 105°
2026-05-05 19:06 51.31261 -12.86156 37143 ft 507 kts 105°
2026-05-05 19:06 51.29407 -12.75292 37143 ft 506 kts 105°
2026-05-05 19:07 51.27542 -12.64437 37137 ft 506 kts 105°
2026-05-05 19:07 51.25670 -12.53605 37138 ft 506 kts 105°
2026-05-05 19:08 51.23789 -12.42786 37131 ft 506 kts 105°
2026-05-05 19:08 51.21894 -12.31957 37132 ft 506 kts 105°
2026-05-05 19:09 51.19994 -12.21161 37129 ft 506 kts 105°
2026-05-05 19:09 51.18082 -12.10366 37121 ft 506 kts 105°
2026-05-05 19:10 51.16160 -11.99582 37127 ft 505 kts 105°
2026-05-05 19:10 51.14232 -11.88820 37127 ft 505 kts 105°
2026-05-05 19:11 51.12294 -11.78071 37121 ft 505 kts 105°
2026-05-05 19:11 51.10359 -11.67403 37121 ft 505 kts 105°
2026-05-05 19:12 51.08402 -11.56674 37116 ft 505 kts 106°
2026-05-05 19:12 51.06436 -11.45962 37116 ft 505 kts 106°
2026-05-05 19:13 51.04457 -11.35239 37111 ft 505 kts 106°
2026-05-05 19:13 51.02473 -11.24555 37108 ft 505 kts 106°
2026-05-05 19:14 51.00828 -11.15740 37105 ft 504 kts 106°
2026-05-05 19:14 50.98934 -11.05644 37103 ft 504 kts 106°
2026-05-05 19:15 50.96926 -10.94995 37099 ft 504 kts 106°
2026-05-05 19:15 50.94908 -10.84356 37099 ft 504 kts 106°
2026-05-05 19:16 50.92882 -10.73739 37097 ft 503 kts 107°
2026-05-05 19:16 50.90848 -10.63135 37096 ft 503 kts 107°
2026-05-05 19:17 50.88804 -10.52540 37094 ft 503 kts 107°
2026-05-05 19:17 50.86750 -10.41949 37090 ft 503 kts 107°
2026-05-05 19:18 50.84688 -10.31377 37088 ft 502 kts 107°
2026-05-05 19:18 50.82619 -10.20832 37089 ft 502 kts 107°
2026-05-05 19:19 50.80541 -10.10293 37086 ft 502 kts 107°
2026-05-05 19:19 50.78456 -9.99776 37086 ft 502 kts 107°
2026-05-05 19:20 50.76359 -9.89257 37081 ft 502 kts 107°
2026-05-05 19:20 50.74252 -9.78747 37082 ft 502 kts 107°
2026-05-05 19:21 50.72137 -9.68254 37079 ft 502 kts 107°
2026-05-05 19:21 50.70026 -9.57833 37078 ft 502 kts 107°
2026-05-05 19:22 50.67890 -9.47346 37078 ft 502 kts 107°
2026-05-05 19:22 50.65747 -9.36879 37082 ft 502 kts 107°
2026-05-05 19:23 50.63596 -9.26427 37076 ft 501 kts 108°
2026-05-05 19:23 50.61437 -9.15992 37076 ft 501 kts 108°
2026-05-05 19:24 50.59267 -9.05562 37073 ft 501 kts 108°
2026-05-05 19:24 50.57090 -8.95149 37072 ft 501 kts 108°
2026-05-05 19:25 50.54902 -8.84738 37082 ft 501 kts 108°
2026-05-05 19:25 50.52705 -8.74339 37072 ft 501 kts 108°
2026-05-05 19:26 50.50501 -8.63960 37067 ft 501 kts 108°
2026-05-05 19:26 50.48288 -8.53591 37067 ft 501 kts 108°
2026-05-05 19:27 50.46067 -8.43236 37065 ft 501 kts 108°
2026-05-05 19:27 50.43836 -8.32892 37068 ft 501 kts 108°
2026-05-05 19:28 50.41595 -8.22551 37068 ft 500 kts 108°
2026-05-05 19:28 50.39348 -8.12232 37065 ft 500 kts 108°
2026-05-05 19:29 50.37094 -8.01933 37061 ft 500 kts 109°
2026-05-05 19:29 50.34987 -7.91560 37058 ft 499 kts 105°
2026-05-05 19:30 50.33209 -7.81058 37062 ft 499 kts 104°
2026-05-05 19:30 50.31429 -7.70582 37060 ft 498 kts 104°
2026-05-05 19:31 50.29585 -7.60149 37056 ft 498 kts 105°
2026-05-05 19:31 50.27706 -7.49736 37057 ft 498 kts 105°
2026-05-05 19:32 50.25812 -7.39328 37054 ft 498 kts 105°
2026-05-05 19:32 50.23912 -7.28928 37057 ft 498 kts 105°
2026-05-05 19:33 50.22003 -7.18531 37052 ft 498 kts 105°
2026-05-05 19:33 50.20086 -7.08144 37045 ft 498 kts 105°
2026-05-05 19:34 50.18161 -6.97777 37048 ft 497 kts 105°
2026-05-05 19:35 50.15256 -6.82234 37048 ft 497 kts 105°
2026-05-05 19:35 50.13308 -6.71887 37041 ft 497 kts 105°
2026-05-05 19:36 50.11352 -6.61553 37045 ft 497 kts 105°
2026-05-05 19:36 50.09399 -6.51296 37036 ft 497 kts 105°
2026-05-05 19:37 50.07425 -6.40978 37039 ft 497 kts 106°
2026-05-05 19:37 50.05442 -6.30673 37036 ft 496 kts 105°
2026-05-05 19:38 50.03788 -6.22123 37040 ft 497 kts 106°
2026-05-05 19:38 50.01792 -6.11852 37025 ft 496 kts 105°
2026-05-05 19:39 49.99777 -6.01538 37021 ft 494 kts 105°
2026-05-05 19:39 49.97783 -5.91387 37026 ft 495 kts 105°
2026-05-05 19:40 49.95767 -5.81175 37024 ft 494 kts 106°
2026-05-05 19:40 49.93742 -5.70974 37022 ft 495 kts 106°
2026-05-05 19:41 49.91706 -5.60770 37012 ft 495 kts 106°
2026-05-05 19:41 49.89661 -5.50577 36994 ft 494 kts 106°
2026-05-05 19:42 49.87609 -5.40399 37012 ft 495 kts 107°
2026-05-05 19:42 49.85546 -5.30222 36996 ft 495 kts 107°
2026-05-05 19:43 49.83473 -5.20044 36990 ft 495 kts 107°
2026-05-05 19:43 49.81394 -5.09888 37001 ft 495 kts 107°
2026-05-05 19:44 49.79307 -4.99751 37001 ft 494 kts 107°
2026-05-05 19:44 49.77211 -4.89621 37000 ft 495 kts 107°
2026-05-05 19:45 49.75107 -4.79500 36999 ft 494 kts 107°
2026-05-05 19:45 49.72991 -4.69376 37006 ft 495 kts 108°
2026-05-05 19:46 49.71234 -4.59123 36991 ft 494 kts 99°
2026-05-05 19:46 49.70102 -4.48660 36999 ft 494 kts 98°
2026-05-05 19:47 49.69057 -4.38183 37001 ft 493 kts 98°
2026-05-05 19:47 49.68005 -4.27704 36977 ft 494 kts 99°
2026-05-05 19:48 49.66933 -4.17238 36978 ft 494 kts 99°
2026-05-05 19:48 49.65846 -4.06792 36972 ft 491 kts 99°
2026-05-05 19:49 49.64786 -3.96465 36973 ft 491 kts 97°
2026-05-05 19:49 49.64123 -3.85990 36979 ft 491 kts 94°
2026-05-05 19:50 49.63588 -3.75486 36975 ft 491 kts 95°
2026-05-05 19:50 49.62987 -3.64997 36966 ft 491 kts 95°
2026-05-05 19:51 49.62330 -3.54513 36961 ft 491 kts 96°
2026-05-05 19:51 49.61649 -3.44012 36962 ft 493 kts 96°
2026-05-05 19:52 49.60960 -3.33508 36974 ft 493 kts 96°
2026-05-05 19:52 49.60263 -3.22999 36969 ft 492 kts 96°
2026-05-05 19:53 49.59558 -3.12506 36960 ft 492 kts 96°
2026-05-05 19:53 49.58843 -3.02006 36954 ft 493 kts 96°
2026-05-05 19:54 49.58118 -2.91506 36957 ft 493 kts 96°
2026-05-05 19:54 49.57384 -2.81007 36961 ft 493 kts 96°
2026-05-05 19:55 49.56641 -2.70525 36962 ft 493 kts 96°
2026-05-05 19:55 49.55888 -2.60043 36965 ft 491 kts 97°
2026-05-05 19:56 49.55135 -2.49685 36961 ft 482 kts 97°
2026-05-05 19:56 49.54370 -2.39295 36959 ft 492 kts 97°
2026-05-05 19:57 49.53590 -2.28844 36941 ft 491 kts 97°
2026-05-05 19:57 49.52803 -2.18409 36943 ft 490 kts 97°
2026-05-05 19:58 49.52009 -2.08015 36935 ft 489 kts 97°
2026-05-05 19:58 49.51208 -1.97646 36936 ft 488 kts 97°
2026-05-05 19:59 49.50402 -1.87341 36939 ft 488 kts 97°
2026-05-05 19:59 49.49583 -1.76993 36938 ft 487 kts 97°
2026-05-05 20:00 49.48756 -1.66665 36938 ft 487 kts 97°
2026-05-05 20:00 49.47924 -1.56327 36939 ft 487 kts 98°
2026-05-05 20:01 49.47075 -1.46007 36941 ft 487 kts 98°
2026-05-05 20:01 49.46217 -1.35683 36937 ft 487 kts 98°
2026-05-05 20:02 49.45352 -1.25363 36939 ft 486 kts 98°
2026-05-05 20:02 49.44480 -1.15066 36938 ft 486 kts 98°
2026-05-05 20:03 49.43599 -1.04776 36932 ft 486 kts 98°
2026-05-05 20:03 49.42710 -0.94491 36931 ft 486 kts 98°
2026-05-05 20:04 49.41811 -0.84213 36927 ft 486 kts 99°
2026-05-05 20:04 49.40903 -0.73936 36926 ft 485 kts 99°
2026-05-05 20:05 49.39992 -0.63735 36926 ft 485 kts 99°
2026-05-05 20:05 49.39066 -0.53469 36906 ft 484 kts 99°
2026-05-05 20:05 49.38605 -0.48387 36327 ft 480 kts 99°
2026-05-05 20:06 49.38142 -0.43312 35461 ft 482 kts 99°
2026-05-05 20:06 49.37674 -0.38219 34686 ft 481 kts 99°
2026-05-05 20:06 49.37206 -0.33143 33939 ft 479 kts 99°
2026-05-05 20:06 49.36738 -0.28096 33064 ft 477 kts 99°
2026-05-05 20:07 49.36274 -0.23058 32076 ft 478 kts 98°
2026-05-05 20:07 49.35930 -0.17979 31044 ft 480 kts 95°
2026-05-05 20:07 49.35638 -0.12876 30002 ft 482 kts 95°
2026-05-05 20:07 49.35337 -0.07742 28880 ft 483 kts 95°
2026-05-05 20:08 49.35024 -0.02614 27916 ft 482 kts 95°
2026-05-05 20:08 49.34705 0.02477 27125 ft 477 kts 95°
2026-05-05 20:08 49.34385 0.07503 26442 ft 471 kts 95°
2026-05-05 20:08 49.34065 0.12468 25760 ft 465 kts 95°
2026-05-05 20:09 49.33745 0.17377 25112 ft 460 kts 95°
2026-05-05 20:09 49.33427 0.22231 24455 ft 455 kts 95°
2026-05-05 20:09 49.33110 0.27018 24010 ft 446 kts 95°
2026-05-05 20:09 49.32800 0.31657 23874 ft 429 kts 95°
2026-05-05 20:10 49.32501 0.36118 23740 ft 413 kts 95°
2026-05-05 20:10 49.32209 0.40453 23591 ft 408 kts 95°
2026-05-05 20:10 49.31915 0.44792 23403 ft 410 kts 95°
2026-05-05 20:10 49.31638 0.49151 23114 ft 412 kts 93°
2026-05-05 20:11 49.31526 0.53533 22545 ft 410 kts 90°
2026-05-05 20:11 49.31481 0.57884 21943 ft 407 kts 90°
2026-05-05 20:11 49.31441 0.62202 21424 ft 403 kts 90°
2026-05-05 20:11 49.31397 0.66463 20917 ft 399 kts 90°
2026-05-05 20:12 49.31350 0.70707 20417 ft 397 kts 90°
2026-05-05 20:12 49.31301 0.74913 19920 ft 393 kts 91°
2026-05-05 20:12 49.31249 0.79090 19422 ft 390 kts 91°
2026-05-05 20:12 49.31200 0.83228 18943 ft 389 kts 91°
2026-05-05 20:13 49.31146 0.87356 18342 ft 387 kts 91°
2026-05-05 20:13 49.31090 0.91463 17689 ft 384 kts 91°
2026-05-05 20:13 49.30995 0.95537 17200 ft 378 kts 95°
2026-05-05 20:13 49.30523 0.99447 17137 ft 374 kts 105°
2026-05-05 20:14 49.29647 1.03192 16895 ft 375 kts 111°
2026-05-05 20:14 49.28636 1.06872 16645 ft 374 kts 112°
2026-05-05 20:14 49.27599 1.10522 16380 ft 373 kts 112°
2026-05-05 20:14 49.26556 1.14148 16041 ft 371 kts 112°
2026-05-05 20:15 49.25515 1.17747 15503 ft 369 kts 112°
2026-05-05 20:15 49.24475 1.21323 14907 ft 366 kts 112°
2026-05-05 20:15 49.23440 1.24872 14301 ft 363 kts 112°
2026-05-05 20:15 49.22414 1.28385 13697 ft 361 kts 112°
2026-05-05 20:16 49.21395 1.31869 13046 ft 357 kts 112°
2026-05-05 20:16 49.20384 1.35314 12446 ft 353 kts 112°
2026-05-05 20:16 49.19383 1.38722 11853 ft 349 kts 112°
2026-05-05 20:16 49.18393 1.42092 11268 ft 347 kts 112°
2026-05-05 20:17 49.17409 1.45433 11074 ft 346 kts 112°
2026-05-05 20:17 49.16421 1.48787 10942 ft 346 kts 111°
2026-05-05 20:17 49.15435 1.52130 10809 ft 344 kts 112°
2026-05-05 20:17 49.14450 1.55460 10688 ft 344 kts 112°
2026-05-05 20:18 49.13467 1.58782 10568 ft 343 kts 112°
2026-05-05 20:18 49.12439 1.62065 10448 ft 341 kts 116°
2026-05-05 20:18 49.11225 1.65087 10285 ft 328 kts 121°
2026-05-05 20:18 49.09967 1.67918 10054 ft 316 kts 121°
2026-05-05 20:19 49.08748 1.70626 9855 ft 304 kts 121°
2026-05-05 20:19 49.07569 1.73232 9633 ft 293 kts 121°
2026-05-05 20:19 49.06419 1.75764 9256 ft 288 kts 122°
2026-05-05 20:19 49.05297 1.78283 8781 ft 287 kts 121°
2026-05-05 20:20 49.04191 1.80802 8316 ft 285 kts 121°
2026-05-05 20:20 49.03079 1.83285 7888 ft 283 kts 121°
2026-05-05 20:20 49.02128 1.85842 7675 ft 271 kts 112°
2026-05-05 20:20 49.01342 1.88392 7463 ft 262 kts 112°
2026-05-05 20:21 49.00601 1.90913 7156 ft 259 kts 111°
2026-05-05 20:21 48.99831 1.93356 6971 ft 253 kts 115°
2026-05-05 20:21 48.99004 1.95683 6959 ft 254 kts 115°
2026-05-05 20:21 48.98146 1.98081 6959 ft 254 kts 115°
2026-05-05 20:22 48.97367 2.00461 6686 ft 249 kts 109°
2026-05-05 20:22 48.96866 2.02968 6315 ft 247 kts 98°
2026-05-05 20:22 48.96695 2.04724 6149 ft 239 kts 92°
2026-05-05 20:22 48.96654 2.07162 5976 ft 228 kts 85°
2026-05-05 20:23 48.96757 2.09570 5707 ft 223 kts 82°
2026-05-05 20:23 48.96884 2.11887 5377 ft 222 kts 82°
2026-05-05 20:23 48.97014 2.14232 5117 ft 218 kts 82°
2026-05-05 20:23 48.97138 2.16507 5032 ft 219 kts 82°
2026-05-05 20:24 48.97262 2.18815 5017 ft 218 kts 81°
2026-05-05 20:24 48.97390 2.21144 4973 ft 218 kts 82°
2026-05-05 20:24 48.97520 2.23451 4758 ft 220 kts 82°
2026-05-05 20:24 48.97641 2.25737 4458 ft 219 kts 82°
2026-05-05 20:25 48.97763 2.28043 4126 ft 216 kts 83°
2026-05-05 20:25 48.97883 2.30272 3824 ft 206 kts 82°
2026-05-05 20:25 48.97995 2.32390 3552 ft 195 kts 81°
2026-05-05 20:25 48.98102 2.34378 3288 ft 185 kts 81°
2026-05-05 20:26 48.98206 2.36312 3033 ft 181 kts 81°
2026-05-05 20:26 48.98308 2.38210 2784 ft 178 kts 81°
2026-05-05 20:26 48.98403 2.40023 2551 ft 165 kts 80°
2026-05-05 20:26 48.98493 2.41708 2330 ft 151 kts 79°
2026-05-05 20:27 48.98575 2.43226 2130 ft 137 kts 79°
2026-05-05 20:27 48.98648 2.44604 1948 ft 128 kts 78°
2026-05-05 20:27 48.98722 2.45953 1786 ft 128 kts 78°
2026-05-05 20:27 48.98796 2.47322 1614 ft 130 kts 78°
2026-05-05 20:28 48.98870 2.48714 1432 ft 130 kts 79°
2026-05-05 20:28 48.98943 2.50077 1248 ft 133 kts 78°
2026-05-05 20:28 48.99036 2.51507 1004 ft 135 kts 79°
2026-05-05 20:28 48.99102 2.52909 837 ft 132 kts 81°
2026-05-05 20:29 48.99171 2.54297 697 ft 132 kts 81°
2026-05-05 20:29 48.99248 2.55699 513 ft 133 kts 79°
2026-05-05 20:29 48.99317 2.57095 367 ft 130 kts 79°
2026-05-05 20:29 48.99385 2.58289 366 ft 85 kts 85°
2026-05-05 20:30 48.99419 2.58946 362 ft 46 kts 85°
2026-05-05 20:30 48.99483 2.59302 365 ft 29 kts 66°
2026-05-05 20:30 48.99555 2.59544 365 ft 21 kts 65°
2026-05-05 20:30 48.99632 2.59684 368 ft 15 kts 13°
2026-05-05 20:31 48.99723 2.59683 367 ft 12 kts 356°
2026-05-05 20:31 48.99800 2.59673 365 ft 11 kts 355°
2026-05-05 20:31 48.99864 2.59665 364 ft 7 kts 355°
2026-05-05 20:31 48.99911 2.59659 367 ft 6 kts 356°
2026-05-05 20:32 48.99952 2.59655 363 ft 6 kts 356°
2026-05-05 20:32 48.99996 2.59650 366 ft 7 kts 356°
2026-05-05 20:32 49.00046 2.59639 365 ft 9 kts 340°
2026-05-05 20:32 49.00074 2.59566 368 ft 8 kts 277°
2026-05-05 20:33 49.00073 2.59488 368 ft 7 kts 266°
2026-05-05 20:33 49.00069 2.59415 363 ft 7 kts 264°
2026-05-05 20:33 49.00066 2.59344 365 ft 7 kts 265°
2026-05-05 20:33 49.00060 2.59245 367 ft 11 kts 265°
2026-05-05 20:34 49.00053 2.59117 366 ft 12 kts 265°
2026-05-05 20:34 49.00048 2.58998 366 ft 11 kts 269°
2026-05-05 20:34 49.00075 2.58914 366 ft 7 kts 325°
2026-05-05 20:34 49.00119 2.58895 365 ft 6 kts 347°
2026-05-05 20:35 49.00167 2.58886 367 ft 7 kts 360°
2026-05-05 20:35 49.00182 2.58900 364 ft 1 kts 42°
2026-05-05 20:35 49.00192 2.58935 363 ft 9 kts 73°
2026-05-05 20:35 49.00199 2.59010 365 ft 3 kts 83°
2026-05-05 20:36 49.00200 2.59027 367 ft 0 kts 83°
2026-05-05 20:36 49.00200 2.59030 367 ft 0 kts 84°